Regional Weather Roundup
Issued by NWS

Home | Current Version | Previous Version | Text Only | Print | Product List | Glossary Off
Versions: 1 2 3 4 5 6 7 8 9 10 11 12 13 14 15 16 17 18 19 20 21 22 23 24 25 26 27 28 29 30 31 32 33 34 35 36 37 38 39 40 41 42 43 44 45 46 47 48 49 50

420
ASUS45 KBOU 261107
RWRCO

WEATHER ROUNDUP FOR COLORADO
NATIONAL WEATHER SERVICE DENVER/BOULDER CO
500 AM MDT FRI MAY 26 2017

NOTE: "FAIR" INDICATES FEW OR NO CLOUDS BELOW 12000 FEET WITH NO
SIGNIFICANT WEATHER AND/OR OBSTRUCTIONS TO VISIBILITY.

COZ001>005-013-030-031-261200-
...NORTHWEST COLORADO...

CITY           SKY/WX    TMP DP  RH WIND       PRES   REMARKS
CRAIG          FAIR      43  36  76 E7        29.92F
HAYDEN         FAIR      39  34  81 E9        29.94S
MEEKER         FAIR      39  36  89 E5        29.91F
RABBIT EARS PA PTSUNNY   32  32 100 S8        30.09S WCI  25
STEAMBOAT SPGS FAIR      34  33  96 CALM      29.95F
WALDEN           N/A     34  32  93 E6        30.03S WCI  29
$$

COZ006>008-011-261200-
...WEST CENTRAL VALLEYS...

CITY           SKY/WX    TMP DP  RH WIND       PRES   REMARKS
GRAND JUNCTION FAIR      60  41  49 SE18      29.85S
MONTROSE       FAIR      53  40  61 E5        29.94F
EAGLE          FAIR      44  41  89 E5        30.01F
RIFLE          FAIR      50  42  74 SE7       29.91F
DELTA          FAIR      54  45  71 NE7       29.92S
NUCLA          FAIR      50  36  57 SE9       29.94S
$$

COZ017>023-064>068-261200-
...SOUTHWEST COLORADO...

CITY           SKY/WX    TMP DP  RH WIND       PRES   REMARKS
DURANGO          N/A    N/A N/A N/A MISG      29.99R
CORTEZ         FAIR      56  17  21 SW12      29.93R
PAGOSA SPRINGS FAIR      41  28  61 CALM      30.05R
TELLURIDE      FAIR      43  32  65 S3        30.10R
WOLF CREEK PAS FAIR      32  19  59 S14G21    30.26S WCI  22
$$

COZ009-010-012-014-032>034-037-058>063-261200-
...CENTRAL COLORADO...

CITY           SKY/WX    TMP DP  RH WIND       PRES   REMARKS
ASPEN          MOCLDY    43  39  86 CALM      30.05S
BUENA VISTA    FAIR      43  36  77 NW7       30.06S
COPPER MTN     LGT SNOW  34  27  75 SW21G28   30.17F WCI  22
BERTHOUD PASS  FAIR      27  16  63 W18G30    30.17F WCI  13
COTTONWOOD PAS FAIR      39  36  87 S5        30.12S
GUNNISON       FAIR      41  39  93 N5        30.07S
KREMMLING      FAIR      39  36  87 CALM      30.04S
LEADVILLE      FAIR      33  31  92 E6        30.10F WCI  28
MONARCH PASS   FOG       32  30  93 SW20      30.29F VSB 1/4 WCI  20
SALIDA         FAIR      47  37  70 NW8       30.11R
SUNLIGHT       CLOUDY    32  32 100 SW22G39   30.14S WCI  19
WILKERSON PASS FAIR      32  30  93 W7        30.19S WCI  26
$$

COZ069>075-261200-
...SAN LUIS VALLEY/SANGRE DE CRISTO MOUNTAINS...

CITY           SKY/WX    TMP DP  RH WIND       PRES   REMARKS
ALAMOSA        FAIR      40  34  79 W5        30.04S
DEL NORTE      FAIR      37  31  79 W6        30.07S
LA VETA PASS   FAIR      39  27  60 S8        30.26R
SAGUACHE       FAIR      41  36  81 N14       30.06R
$$

COZ035-036-038>040-261200-
...NORTHERN COLORADO FRONT RANGE...

CITY           SKY/WX    TMP DP  RH WIND       PRES   REMARKS
DENVER INTL AP MOCLDY    47  44  90 N5        29.99R
DMNS CITY PARK   N/A     47  46  95 E1        29.98R
AURORA         MOCLDY    46  45  99 CALM      29.99R
FRONT RANGE AP CLOUDY    46  45  93 N5        30.00R
ERIE MUNI ARPT MOCLDY    45  44  97 NE6       29.98R
BOULDER MUN AP MOCLDY    46  43  87 W3        29.97S
CENTENNIAL     FAIR      45  43  93 S3        29.98S
BROOMFIELD     MOCLDY    45  43  93 CALM      29.99R
FORT COLLINS   CLOUDY    46  40  79 N3        29.99R
LONGMONT       FAIR      46  43  91 N3        30.00S
$$

COZ041-046-047-076>085-087-088-261200-
...PIKES PEAK/PALMER DIVIDE AND SOUTHERN FOOTHILLS...

CITY           SKY/WX    TMP DP  RH WIND       PRES   REMARKS
COLO. SPRINGS  MOCLDY    46  43  89 N5        30.00R
A. F. ACADEMY  FAIR      42  41  95 N7        30.00R
SCHRIEVER AFB  FAIR      45  40  85 N13       29.99S
CHEYENNE MTN   MOCLDY    45  43  91 N12       29.96
ELLICOTT       FAIR     N/A N/A N/A N7        29.98R
FALCON         FAIR      43  40  89 NW5       30.02S
FORT CARSON    FAIR      46  44  92 NW6       29.97S
LIMON          FAIR      43  43 100 N12       29.95F
MONUMENT HILL  MOCLDY    39  37  93 S6        30.03F
CANON CITY     NOT AVBL
WALSENBURG     FAIR      43  41  93 SW6       30.00S
TRINIDAD       FAIR      45  40  82 W7        29.99R
$$

COZ042>045-048>051-090-091-261200-
...NORTHEAST COLORADO...

CITY           SKY/WX    TMP DP  RH WIND       PRES   REMARKS
GREELEY ARPT   FAIR      46  39  76 NW5       29.98R
AKRON          FAIR      46  43  89 N9        29.95R
BURLINGTON     LGT RAIN  54  50  86 W16       29.93R
WRAY           FAIR      52  46  82 N9        29.91R
YUMA           FAIR      48  43  81 N15       29.92R
STERLING       FAIR      43  41  93 NW5       29.94R
HOLYOKE        NOT AVBL
FORT MORGAN    FAIR      44  38  80 N10       29.96R
$$

COZ086-089-092>099-261200-
...SOUTHEAST COLORADO...

CITY           SKY/WX    TMP DP  RH WIND       PRES   REMARKS
PUEBLO         FAIR      51  45  79 SW7       29.96R
LA JUNTA       FAIR      53  46  77 NE8       29.91F
LAMAR          FAIR      56  47  71 N10       29.90S
SPRINGFIELD      N/A     50  46  86 NW13      29.92R
$$




USA.gov is the U.S. government's official web portal to all federal, state and local government web resources and services.